Zurück zum Katalog

STARLINK-2509

AktivKommunikationVLEO
NORAD 48318·PAYLOAD·🇺🇸 United States

Gestartet Apr 29, 2021 von Cape Canaveral Space Force Station

Loading…

Nächste Überflüge (nächste 24 Stunden)

TLE

AktuellSource: CelesTrak SupGP

Epoche: Sep 14, 2026, 20:22 UTC

1 48318C 21036AU  26257.84909722 -.00016503  00000+0 -53030-3 0  2576
2 48318  53.1574 301.5589 0001053  91.2498 127.6986 15.31733603    16

Verfolge STARLINK-2509 in Echtzeit mit AllMySat

Download on the App Store